TimeEST,TemperatureF,Dew PointF,Humidity,Sea Level PressureIn,VisibilityMPH,Wind Direction,Wind SpeedMPH,Gust SpeedMPH,PrecipitationIn,Events,Conditions,WindDirDegrees,DateUTC
12:15 AM,48.0,41.9,79,30.05,10.0,West,6.9,-,0.03,Rain,Light Rain,270,2012-12-05 05:15:00
12:35 AM,47.5,41.9,81,30.04,10.0,WNW,4.6,-,0.03,,Drizzle,300,2012-12-05 05:35:00
12:55 AM,47.3,41.5,80,30.03,10.0,WNW,4.6,-,N/A,,Overcast,290,2012-12-05 05:55:00
1:15 AM,47.5,40.8,78,30.03,10.0,West,4.6,-,N/A,,Mostly Cloudy,280,2012-12-05 06:15:00
1:35 AM,46.6,41.7,83,30.04,10.0,SW,5.8,-,N/A,,Light Drizzle,230,2012-12-05 06:35:00
1:55 AM,47.3,40.5,77,30.04,10.0,WNW,11.5,18.4,N/A,,Overcast,300,2012-12-05 06:55:00
2:15 AM,46.8,39.7,77,30.05,10.0,West,10.4,17.3,N/A,,Mostly Cloudy,270,2012-12-05 07:15:00
2:35 AM,46.2,39.4,77,30.06,10.0,West,11.5,17.3,N/A,,Scattered Clouds,260,2012-12-05 07:35:00
2:55 AM,45.1,37.6,75,30.05,10.0,West,12.7,-,N/A,,Scattered Clouds,260,2012-12-05 07:55:00
3:15 AM,44.6,37.4,76,30.06,10.0,West,10.4,-,N/A,,Clear,280,2012-12-05 08:15:00
3:35 AM,43.9,37.2,77,30.06,10.0,West,10.4,-,N/A,,Scattered Clouds,270,2012-12-05 08:35:00
3:55 AM,43.7,36.5,76,30.06,10.0,West,12.7,18.4,N/A,,Scattered Clouds,270,2012-12-05 08:55:00
4:15 AM,43.5,35.2,73,30.07,10.0,West,11.5,-,N/A,,Clear,260,2012-12-05 09:15:00
4:35 AM,42.8,36.1,77,30.07,10.0,West,11.5,16.1,N/A,,Clear,260,2012-12-05 09:35:00
5:53 AM,41.0,33.8,76,30.10,10.0,West,11.5,-,N/A,,Scattered Clouds,270,2012-12-05 10:53:00
6:53 AM,39.2,33.8,81,30.13,10.0,West,8.1,-,N/A,,Mostly Cloudy,260,2012-12-05 11:53:00
9:53 AM,42.8,32.0,66,30.15,10.0,WNW,12.7,-,N/A,,Mostly Cloudy,290,2012-12-05 14:53:00
10:53 AM,42.8,32.0,66,30.16,10.0,West,10.4,21.9,N/A,,Mostly Cloudy,280,2012-12-05 15:53:00
11:55 AM,41.0,28.4,61,30.15,10.0,West,11.5,-,N/A,,Overcast,280,2012-12-05 16:55:00
12:53 PM,42.8,28.4,57,30.15,10.0,West,17.3,-,N/A,,Overcast,270,2012-12-05 17:53:00
1:53 PM,41.0,24.8,53,30.16,10.0,WNW,13.8,24.2,N/A,,Overcast,300,2012-12-05 18:53:00
2:53 PM,39.2,23.0,52,30.18,10.0,WNW,17.3,-,N/A,,Overcast,300,2012-12-05 19:53:00
3:53 PM,37.4,19.4,48,-9999,-9999.0,WNW,13.8,20.7,N/A,,Overcast,300,2012-12-05 20:53:00
4:53 PM,35.6,17.6,48,30.25,10.0,NNW,11.5,-,N/A,,Overcast,330,2012-12-05 21:53:00
5:53 PM,33.8,17.6,52,30.27,10.0,NNW,13.8,-,N/A,,Overcast,330,2012-12-05 22:53:00
6:53 PM,33.8,17.6,52,30.29,10.0,NNW,9.2,-,N/A,,Overcast,330,2012-12-05 23:53:00
7:53 PM,33.8,17.6,52,30.30,10.0,NNW,6.9,-,N/A,,Overcast,330,2012-12-06 00:53:00
8:15 PM,32.9,18.3,55,30.28,10.0,North,11.5,-,N/A,,Overcast,350,2012-12-06 01:15:00
8:35 PM,32.0,17.8,56,30.28,10.0,NNW,8.1,-,N/A,,Mostly Cloudy,340,2012-12-06 01:35:00
8:53 PM,32.0,17.6,55,30.28,10.0,NNW,5.8,-,N/A,,Mostly Cloudy,340,2012-12-06 01:53:00
8:55 PM,32.0,17.2,55,30.28,10.0,NNW,9.2,-,N/A,,Mostly Cloudy,330,2012-12-06 01:55:00
9:15 PM,32.0,17.6,55,30.28,10.0,NW,5.8,-,N/A,,Mostly Cloudy,320,2012-12-06 02:15:00
9:35 PM,31.3,17.6,57,30.28,10.0,NNW,4.6,-,N/A,,Scattered Clouds,330,2012-12-06 02:35:00
9:55 PM,31.1,17.6,57,30.28,10.0,NNW,5.8,-,N/A,,Scattered Clouds,340,2012-12-06 02:55:00
10:15 PM,30.2,17.4,59,30.29,10.0,NNW,4.6,-,N/A,,Scattered Clouds,330,2012-12-06 03:15:00
10:35 PM,29.7,17.4,60,30.29,10.0,NNW,4.6,-,N/A,,Clear,340,2012-12-06 03:35:00
10:55 PM,29.7,17.4,60,30.29,10.0,NNW,3.5,-,N/A,,Clear,330,2012-12-06 03:55:00
11:15 PM,29.3,17.2,61,30.29,10.0,NNW,3.5,-,N/A,,Clear,330,2012-12-06 04:15:00
11:35 PM,29.1,17.2,61,30.30,10.0,NNW,4.6,-,N/A,,Clear,330,2012-12-06 04:35:00
11:55 PM,28.9,16.9,61,30.30,10.0,NNW,3.5,-,N/A,,Clear,340,2012-12-06 04:55:00